Observations for Trim Market St
| Time | AQI | Temp °C | Hum % | Pres Pa | CO μg/m³ | H₂S μg/m³ | NO μg/m³ | NO₂ μg/m³ | O₃ μg/m³ | SO₂ μg/m³ | PM1 μg/m³ | PM2.5 μg/m³ | PM10 μg/m³ |
|---|---|---|---|---|---|---|---|---|---|---|---|---|---|
| Tuesday 18 August 2026 | |||||||||||||
| 04:59 | 2 | 17.7 | 75 | 38,310 | 0.09 | 0 | 1.87 | 5.69 | 71.07 | 0 | 1.43 | 3.32 | 6.33 |
| 04:55 | 2 | 17.7 | 74 | 40,641 | 0.09 | 0 | 1.88 | 6.37 | 78.21 | 0 | 0.71 | 2.85 | 5.73 |
| 04:52 | 2 | 17.8 | 74 | 41,963 | 0.09 | 0 | 1.87 | 5.46 | 66.75 | 0 | 1.43 | 3.34 | 5.73 |
| 04:44 | 2 | 17.8 | 74 | 43,358 | 0.08 | 0 | 1.86 | 4.83 | 63.9 | 0 | 0.71 | 1.9 | 3.92 |
| 04:43 | 2 | 17.8 | 74 | 43,375 | 0.07 | 0 | 1.79 | 5.2 | 65.7 | 0 | 1.43 | 2.86 | 5.12 |
| 04:39 | 2 | 17.8 | 74 | 43,352 | 0.07 | 0 | 1.85 | 4.61 | 58.57 | 0 | 2.14 | 2.86 | 5.12 |
| 04:38 | 2 | 17.8 | 74 | 43,515 | 0.07 | 0 | 1.85 | 5.25 | 68.72 | 0 | 1.43 | 2.87 | 5.72 |
| 04:37 | 2 | 17.8 | 74 | 43,719 | 0.08 | 0 | 1.84 | 5.16 | 70.82 | 0 | 1.43 | 2.39 | 4.52 |
| 04:36 | 2 | 17.8 | 74 | 43,810 | 0.08 | 0 | 1.86 | 4.18 | 61.51 | 0 | 1.43 | 4.31 | 8.74 |
| 04:35 | 2 | 17.8 | 74 | 43,893 | 0.09 | 0 | 1.83 | 5.07 | 61.76 | 0 | 1.43 | 2.87 | 6.93 |
| 04:34 | 2 | 17.8 | 74 | 43,978 | 0.07 | 0 | 1.78 | 3.96 | 57.88 | 0 | 1.43 | 2.87 | 5.12 |
| 04:33 | 2 | 17.8 | 74 | 43,992 | 0.08 | 0 | 1.83 | 4.63 | 61.15 | 0 | 0.71 | 3.35 | 6.32 |
| 04:32 | 2 | 17.8 | 74 | 44,002 | 0.07 | 0 | 1.85 | 4.12 | 60.38 | 0 | 1.43 | 2.87 | 5.12 |
| 04:31 | 2 | 17.8 | 74 | 44,028 | 0.08 | 0 | 1.83 | 4.92 | 65.94 | 0 | 1.43 | 3.35 | 7.53 |
| 04:30 | 2 | 17.8 | 74 | 44,126 | 0.07 | 0 | 1.84 | 4.48 | 59.23 | 0 | 2.85 | 5.27 | 10.55 |
| 04:29 | 2 | 17.8 | 74 | 44,287 | 0.08 | 0 | 1.85 | 4.04 | 57.77 | 0 | 1.43 | 3.83 | 8.74 |
| 04:28 | 2 | 17.8 | 74 | 44,405 | 0.07 | 0 | 1.83 | 4.55 | 62.07 | 0 | 1.43 | 3.35 | 5.72 |
| 04:27 | 2 | 17.8 | 74 | 44,446 | 0.08 | 0 | 1.85 | 4.35 | 59.73 | 0 | 1.43 | 3.36 | 6.32 |
| 04:26 | 2 | 17.8 | 74 | 44,373 | 0.09 | 0 | 1.86 | 4.05 | 65.91 | 0 | 1.43 | 3.36 | 7.53 |
| 04:24 | 2 | 17.8 | 74 | 44,297 | 0.07 | 0 | 1.87 | 4.85 | 62.37 | 0 | 2.14 | 4.31 | 9.34 |